Location: Newark
(41.0400°S, 62.7845°W)
Time: 21:05:28
(UTC+00:00)

Courier 1B Rocket - Pass Details

Date: 03 December 2021
Orbit: 920 x 1202 km, 28.2° (Epoch: 22 January)

Event Time Altitude Azimuth Distance (km) Brightness Sun altitude
Rises 15:13:07 0° 307° (NW) 4,007 8.2 68.6°
Reaches altitude 10° 15:16:21 10° 318° (NW) 3,081 7.9 68.9°
Maximum altitude 15:22:34 27° 12° (NNE) 2,115 7.6 69.5°
Drops below altitude 10° 15:28:54 10° 66° (ENE) 3,142 8.0 70.0°
Sets 15:32:14 0° 77° (ENE) 4,100 8.4 70.2°
